Starlink 3680

operational
NORAD ID: 51969 Int'l Des: 2022-025 Owner: SPXS Country: US Constellation: starlink
LEOCIRCULARSTARLINK_TYPE

Über Starlink 3680

Beschreibung wird geladen...

Live-Position

3D-Globus wird geladen...

Nächste Überflüge

Höhenverlauf

Altitude vs Time

uPlot chart will show altitude changes over time

Zweizeiliger Elementsatz

1 51969U 22025P 26034.66536748 .00000700 00000-0 65865-4 0 9992
2 51969 53.0572 179.9707 0001136 94.1568 265.9551 15.06403017215837
Epoch: 3. Feb. 2026 • Age: 9 hours

Aktueller Status

Höhe 548.3 km
Geschwindigkeit 7.59 km/s
Subsatellitenpunkt 29.57°N, 169.3°W
Startdatum 9. März 2022
Alter 3.9 years
Typ internet

Technische Details

Klassifizierung Payload
Masse 297.00 kg
Trockenmasse 275.00 kg
Gesamtmasse 297.00 kg
Länge 0.20 m
Durchmesser 2.80 m
Spannweite 9.00 m
Form Box + pan
Hersteller SPXS
Bus-Typ Starlink
Phasenstatus In Orbit
Besitzer/Staat SPXS/US

Große Konstellationen

Loading constellations...